This is the latest recevied weather packets stored in our database for station/object ALTO-WX. If no packets are shown the sender has not sent any weather packets the latest 10 day(s).
| Time | Temp. | Humidity | Pressure | Rain* | Wind** | Luminosity | Snow |
|---|---|---|---|---|---|---|---|
| 1777628734 | 2.22° C | 70% | 984.2 hPa | 0 mm | - | - | - |
| 1777627849 | 2.22° C | 75% | 983.9 hPa | 0 mm | - | - | - |
| 1777626933 | 2.22° C | 75% | 983.9 hPa | 0 mm | - | - | - |
| 1777626058 | 2.22° C | 75% | 983.9 hPa | 0 mm | - | - | - |
| 1777625132 | 2.22° C | 74% | 983.8 hPa | 0 mm | - | - | - |
| 1777624247 | 2.22° C | 78% | 983.4 hPa | 0 mm | - | - | - |
| 1777623333 | 2.78° C | 78% | 983.5 hPa | 0 mm | - | - | - |
| 1777622461 | 2.78° C | 78% | 983.5 hPa | 0 mm | - | - | - |
| 1777621533 | 2.78° C | 80% | 983.8 hPa | 0 mm | - | - | - |
| 1777620651 | 3.33° C | 80% | 983.8 hPa | 0 mm | - | - | - |
| 1777619732 | 3.89° C | 80% | 983.9 hPa | 0 mm | - | - | - |
| 1777618860 | 3.89° C | 80% | 983.9 hPa | 0 mm | - | - | - |
| 1777617932 | 3.89° C | 73% | 984.3 hPa | 0 mm | - | - | - |
| 1777617052 | 3.89° C | 78% | 983.4 hPa | 0 mm | - | - | - |
| 1777616133 | 4.44° C | 78% | 983.4 hPa | 0 mm | - | - | - |
| 1777615266 | 4.44° C | 78% | 983.4 hPa | 0 mm | - | - | - |
| 1777614332 | 4.44° C | 72% | 985 hPa | 0 mm | - | - | - |
| 1777613451 | 4.44° C | 73% | 984.3 hPa | 0 mm | - | - | - |
| 1777612535 | 5° C | 73% | 984.3 hPa | 0 mm | - | - | - |
| 1777611660 | 5° C | 73% | 984.3 hPa | 0 mm | - | - | - |
| 1777610733 | 5° C | 68% | 985.4 hPa | 0 mm | - | - | - |
| 1777609852 | 5° C | 72% | 984.6 hPa | 0 mm | - | - | - |
| 1777608933 | 5° C | 72% | 984.6 hPa | 0 mm | - | - | - |
| 1777608062 | 5° C | 72% | 984.6 hPa | 0 mm | - | - | - |
| 1777607134 | 5° C | 67% | 984.5 hPa | 0 mm | - | - | - |
* Rain latest hour (hover to see other rain measurements)
** Current wind speed in m/s (hover to see current wind gust speed)